User: anonymous
Location: Unspecified
(0.0000°N, 0.0000°E)
Time: 22:19:12
(UTC+02:00)
Language:

OPAL - Orbit

View from above orbital plane
View from above orbital plane
View from above satellite
View from above satellite

Ground track
Ground track

The orbit data is extracted from the following two-line orbital elements,

1 26063U 00004C   14273.48075566  .00000266  00000-0  11043-3 0   749
2 26063 100.2247 078.9678 0036344 220.5196 139.3277 14.36404519769130
Epoch (UTC): 30 September 2014 11:32:17
Eccentricity: 0.0036344
inclination: 100.2247°
perigee height: 744 km
apogee height: 796 km
right ascension of ascending node: 78.9678°
argument of perigee: 220.5196°
revolutions per day: 14.36404519
mean anomaly at epoch: 139.3277°
orbit number at epoch: 76913

The dashed part of the orbit path shows where the satellite is in the earth's shadow,  

DLR